Location: Pensacola
(30.4142°N, 87.2155°W)
Time: 03:12:48
(UTC-05:00)

Hubble Space Telescope - Pass Details

Date: 04 February 2023
Orbit: 526 x 530 km, 28.5° (Epoch: 01 April)

Event Time Altitude Azimuth Distance (km) Brightness Sun altitude
Exits shadow 05:02:31 17° 198° (SSW) 1,395 2.7 -20.9°
Drops below altitude 10° 05:04:50 10° 163° (SSE) 1,763 3.7 -20.4°
Sets 05:07:42 0° 143° (SE) 2,651 5.0 -19.8°
